timestamp,wind_dir_avg,wind_spd_avg,wind_spd_max_dir,wind_spd_gust,battery_voltage,lat,long
2021-01-23 00:04:01+00:00,268.0,3.91,270.0,4.89,12.57,47.59359,-54.27349
2021-01-23 00:14:01+00:00,270.0,4.41,276.0,5.19,12.49,47.59359,-54.27349
2021-01-23 00:24:01+00:00,293.0,2.68,290.0,3.3,12.49,47.59359,-54.27349
2021-01-23 00:34:01+00:00,304.0,2.79,299.0,3.97,12.49,47.59359,-54.27349
2021-01-23 00:44:01+00:00,294.0,3.75,301.0,4.44,12.49,47.59359,-54.27349
2021-01-23 00:54:01+00:00,308.0,3.76,312.0,4.34,12.49,47.59359,-54.27349
2021-01-23 01:04:01+00:00,319.0,4.79,321.0,5.42,12.49,47.59359,-54.27349
2021-01-23 01:14:01+00:00,317.0,4.59,322.0,5.4,12.49,47.59359,-54.27349
2021-01-23 01:24:01+00:00,313.0,4.44,314.0,5.47,12.49,47.59359,-54.27349
2021-01-23 01:34:01+00:00,307.0,3.84,307.0,4.82,12.49,47.59359,-54.27349
2021-01-23 01:44:01+00:00,305.0,4.23,307.0,5.25,12.49,47.59359,-54.27349
2021-01-23 01:54:01+00:00,323.0,4.92,318.0,5.89,12.49,47.59359,-54.27349
2021-01-23 02:04:01+00:00,328.0,3.68,310.0,5.21,12.49,47.59359,-54.27349
2021-01-23 02:14:01+00:00,340.0,2.5,345.0,3.34,12.49,47.59359,-54.27349
2021-01-23 02:24:01+00:00,299.0,2.5,290.0,3.69,12.49,47.59359,-54.27349
2021-01-23 02:34:01+00:00,305.0,2.12,305.0,2.83,12.49,47.59359,-54.27349
2021-01-23 02:44:01+00:00,349.0,2.63,357.0,3.38,12.49,47.59359,-54.27349
2021-01-23 02:54:01+00:00,290.0,4.45,299.0,5.24,12.49,47.59359,-54.27349
2021-01-23 03:04:01+00:00,309.0,4.68,299.0,7.04,12.49,47.59359,-54.27349
2021-01-23 03:14:01+00:00,319.0,4.42,322.0,5.62,12.41,47.59359,-54.27349
2021-01-23 03:24:01+00:00,318.0,4.86,324.0,5.74,12.41,47.59359,-54.27349
2021-01-23 03:34:01+00:00,352.0,5.28,351.0,6.33,12.41,47.59359,-54.27349
2021-01-23 03:44:01+00:00,332.0,5.55,344.0,6.47,12.41,47.59359,-54.27349
2021-01-23 03:54:01+00:00,325.0,4.88,320.0,5.62,12.41,47.59359,-54.27349
2021-01-23 04:04:01+00:00,328.0,2.69,325.0,3.89,12.41,47.59359,-54.27349
2021-01-23 04:14:01+00:00,322.0,4.29,309.0,5.69,12.41,47.59359,-54.27349
2021-01-23 04:24:01+00:00,303.0,3.01,309.0,3.92,12.41,47.59359,-54.27349
2021-01-23 04:34:01+00:00,311.0,3.63,322.0,4.58,12.41,47.59359,-54.27349
2021-01-23 04:44:01+00:00,319.0,4.63,311.0,5.26,12.41,47.59359,-54.27349
2021-01-23 04:54:01+00:00,326.0,5.03,327.0,6.03,12.41,47.59359,-54.27349
2021-01-23 05:04:01+00:00,324.0,6.14,323.0,7.13,12.41,47.59359,-54.27349
2021-01-23 05:14:01+00:00,334.0,6.27,334.0,7.25,12.41,47.59359,-54.27349
2021-01-23 05:24:01+00:00,345.0,5.51,339.0,6.44,12.41,47.59359,-54.27349
2021-01-23 05:34:01+00:00,332.0,5.5,332.0,6.26,12.41,47.59359,-54.27349
2021-01-23 05:44:01+00:00,335.0,4.98,339.0,6.24,12.41,47.59359,-54.27349
2021-01-23 05:54:01+00:00,334.0,4.34,333.0,5.11,12.41,47.59359,-54.27349
2021-01-23 06:04:01+00:00,334.0,5.08,337.0,6.79,12.41,47.59359,-54.27349
2021-01-23 06:14:01+00:00,337.0,5.94,336.0,6.47,12.41,47.59359,-54.27349
2021-01-23 06:24:01+00:00,345.0,5.45,349.0,6.18,12.41,47.59359,-54.27349
2021-01-23 06:34:01+00:00,347.0,4.61,344.0,5.08,12.41,47.59359,-54.27349
2021-01-23 06:44:01+00:00,335.0,5.87,336.0,6.93,12.41,47.59359,-54.27349
2021-01-23 06:54:01+00:00,331.0,5.95,325.0,6.95,12.41,47.59359,-54.27349
2021-01-23 07:04:01+00:00,352.0,7.01,357.0,8.11,12.41,47.59359,-54.27349
2021-01-23 07:14:01+00:00,330.0,5.36,332.0,6.55,12.33,47.59359,-54.27349
2021-01-23 07:24:01+00:00,321.0,6.82,324.0,7.86,12.33,47.59359,-54.27349
2021-01-23 07:34:01+00:00,327.0,6.9,328.0,8.21,12.33,47.59359,-54.27349
2021-01-23 07:44:01+00:00,329.0,7.08,322.0,7.83,12.33,47.59359,-54.27349
2021-01-23 07:54:01+00:00,327.0,7.23,323.0,8.98,12.33,47.59359,-54.27349
2021-01-23 08:04:01+00:00,322.0,6.87,321.0,8.25,12.33,47.59359,-54.27349
2021-01-23 08:14:01+00:00,342.0,4.7,335.0,5.69,12.33,47.59359,-54.27349
2021-01-23 08:24:01+00:00,324.0,4.29,319.0,5.67,12.33,47.59359,-54.27349
2021-01-23 08:34:01+00:00,300.0,3.15,280.0,4.69,12.33,47.59359,-54.27349
2021-01-23 08:44:01+00:00,303.0,2.57,308.0,4.09,12.33,47.59359,-54.27349
2021-01-23 08:54:01+00:00,304.0,2.14,308.0,3.0,12.33,47.59359,-54.27349
2021-01-23 09:04:01+00:00,317.0,3.87,336.0,4.5,12.33,47.59359,-54.27349
2021-01-23 09:14:01+00:00,308.0,4.81,310.0,6.19,12.33,47.59359,-54.27349
2021-01-23 09:24:01+00:00,306.0,6.99,311.0,8.48,12.33,47.59359,-54.27349
2021-01-23 09:34:01+00:00,297.0,4.98,292.0,5.64,12.33,47.59359,-54.27349
2021-01-23 09:44:01+00:00,318.0,4.24,324.0,5.66,12.33,47.59359,-54.27349
2021-01-23 09:54:01+00:00,309.0,4.25,309.0,5.31,12.33,47.59359,-54.27349
2021-01-23 10:04:01+00:00,321.0,3.85,320.0,5.3,12.33,47.59359,-54.27349
2021-01-23 10:14:01+00:00,304.0,3.57,304.0,4.83,12.33,47.59359,-54.27349
2021-01-23 10:24:01+00:00,297.0,4.85,295.0,5.69,12.33,47.59359,-54.27349
2021-01-23 10:34:01+00:00,309.0,4.38,309.0,5.27,12.33,47.59359,-54.27349
2021-01-23 10:44:01+00:00,308.0,3.12,311.0,3.82,12.33,47.59359,-54.27349
2021-01-23 10:54:01+00:00,315.0,4.88,316.0,6.08,12.33,47.59359,-54.27349
2021-01-23 11:04:01+00:00,321.0,3.41,331.0,4.45,12.33,47.59359,-54.27349
2021-01-23 11:14:01+00:00,331.0,4.94,328.0,6.29,12.33,47.59359,-54.27349
2021-01-23 11:24:01+00:00,328.0,6.87,324.0,8.58,12.33,47.59359,-54.27349
2021-01-23 11:34:01+00:00,317.0,7.47,323.0,9.19,12.33,47.59359,-54.27349
2021-01-23 11:44:01+00:00,313.0,9.73,312.0,10.98,12.33,47.59359,-54.27349
2021-01-23 11:54:01+00:00,308.0,10.35,305.0,12.75,12.33,47.59359,-54.27349
2021-01-23 12:04:01+00:00,315.0,9.51,319.0,10.63,12.33,47.59359,-54.27349
2021-01-23 12:14:01+00:00,314.0,10.43,307.0,12.3,14.16,47.59359,-54.27349
2021-01-23 12:24:01+00:00,317.0,9.37,318.0,10.74,14.16,47.59359,-54.27349
2021-01-23 12:34:01+00:00,317.0,8.83,315.0,11.41,14.16,47.59359,-54.27349
2021-01-23 12:44:01+00:00,318.0,8.22,314.0,9.84,14.16,47.59359,-54.27349
2021-01-23 12:54:01+00:00,291.0,7.72,296.0,9.08,14.16,47.59359,-54.27349
2021-01-23 13:04:01+00:00,305.0,7.01,304.0,8.39,14.16,47.59359,-54.27349
2021-01-23 13:14:01+00:00,283.0,6.69,282.0,7.9,13.68,47.59359,-54.27349
2021-01-23 13:24:01+00:00,305.0,5.97,308.0,7.23,13.68,47.59359,-54.27349
2021-01-23 13:34:01+00:00,305.0,6.14,302.0,7.7,13.68,47.59359,-54.27349
2021-01-23 13:44:01+00:00,312.0,7.3,310.0,9.14,13.68,47.59359,-54.27349
2021-01-23 13:54:01+00:00,291.0,5.74,299.0,7.54,13.68,47.59359,-54.27349
2021-01-23 14:04:01+00:00,283.0,6.18,288.0,6.96,13.68,47.59359,-54.27349
2021-01-23 14:14:01+00:00,279.0,5.8,270.0,7.68,13.68,47.59359,-54.27349
2021-01-23 14:24:01+00:00,285.0,5.82,288.0,7.37,13.68,47.59359,-54.27349
2021-01-23 14:34:01+00:00,283.0,6.03,288.0,8.06,13.68,47.59359,-54.27349
2021-01-23 14:44:01+00:00,283.0,7.43,283.0,8.32,13.68,47.59359,-54.27349
2021-01-23 14:54:01+00:00,281.0,8.07,275.0,9.24,13.68,47.59359,-54.27349
2021-01-23 15:04:01+00:00,284.0,7.71,295.0,8.72,13.68,47.59359,-54.27349
2021-01-23 15:14:01+00:00,291.0,7.75,289.0,8.77,13.68,47.59359,-54.27349
2021-01-23 15:24:01+00:00,287.0,8.18,290.0,9.46,13.68,47.59359,-54.27349
2021-01-23 15:34:01+00:00,289.0,9.26,287.0,11.51,13.68,47.59359,-54.27349
2021-01-23 15:44:01+00:00,286.0,7.93,297.0,9.01,13.68,47.59359,-54.27349
2021-01-23 15:54:01+00:00,293.0,7.18,292.0,8.73,13.68,47.59359,-54.27349
2021-01-23 16:04:01+00:00,297.0,8.19,287.0,12.93,13.68,47.59359,-54.27349
2021-01-23 16:14:01+00:00,282.0,9.03,277.0,13.86,13.76,47.59359,-54.27349
2021-01-23 16:24:01+00:00,286.0,7.39,289.0,8.55,13.76,47.59359,-54.27349
2021-01-23 16:34:01+00:00,284.0,7.68,280.0,9.64,13.76,47.59359,-54.27349
2021-01-23 16:44:01+00:00,282.0,8.78,280.0,14.13,13.76,47.59359,-54.27349
2021-01-23 16:54:01+00:00,281.0,7.57,287.0,8.58,13.76,47.59359,-54.27349
2021-01-23 17:04:01+00:00,266.0,8.35,265.0,9.19,13.76,47.59359,-54.27349
2021-01-23 17:14:01+00:00,278.0,11.67,278.0,14.33,13.76,47.59359,-54.27349
2021-01-23 17:24:01+00:00,275.0,11.0,281.0,14.15,13.76,47.59359,-54.27349
2021-01-23 17:34:01+00:00,270.0,9.67,273.0,12.33,13.76,47.59359,-54.27349
2021-01-23 17:44:01+00:00,266.0,8.81,264.0,10.53,13.76,47.59359,-54.27349
2021-01-23 17:54:01+00:00,275.0,8.06,262.0,9.02,13.76,47.59359,-54.27349
2021-01-23 18:04:01+00:00,286.0,7.51,287.0,8.75,13.76,47.59359,-54.27349
2021-01-23 18:14:01+00:00,265.0,7.75,275.0,8.98,13.76,47.59359,-54.27349
2021-01-23 18:24:01+00:00,278.0,6.24,283.0,7.43,13.76,47.59359,-54.27349
2021-01-23 18:34:01+00:00,277.0,7.61,279.0,8.78,13.76,47.59359,-54.27349
2021-01-23 18:44:01+00:00,282.0,8.24,289.0,9.86,13.76,47.59359,-54.27349
2021-01-23 18:54:01+00:00,282.0,8.91,286.0,10.09,13.76,47.59359,-54.27349
2021-01-23 19:04:01+00:00,274.0,8.58,275.0,10.68,13.76,47.59359,-54.27349
2021-01-23 19:14:01+00:00,293.0,9.02,294.0,10.19,13.37,47.59359,-54.27349
2021-01-23 19:24:01+00:00,280.0,6.55,274.0,7.58,13.37,47.59359,-54.27349
2021-01-23 19:34:01+00:00,279.0,6.02,277.0,7.71,13.37,47.59359,-54.27349
2021-01-23 19:44:01+00:00,279.0,5.39,277.0,6.06,13.37,47.59359,-54.27349
2021-01-23 19:54:01+00:00,287.0,6.67,288.0,8.39,13.37,47.59359,-54.27349
2021-01-23 20:04:01+00:00,281.0,8.13,282.0,9.88,13.37,47.59359,-54.27349
2021-01-23 20:14:01+00:00,276.0,7.62,278.0,9.52,12.97,47.59359,-54.27349
2021-01-23 20:24:01+00:00,282.0,9.32,283.0,12.72,12.97,47.59359,-54.27349
2021-01-23 20:34:01+00:00,276.0,7.75,278.0,8.97,12.97,47.59359,-54.27349
2021-01-23 20:44:01+00:00,279.0,9.56,273.0,10.87,12.97,47.59359,-54.27349
2021-01-23 20:54:01+00:00,274.0,7.87,274.0,9.73,12.97,47.59359,-54.27349
2021-01-23 21:04:01+00:00,284.0,8.99,276.0,11.14,12.97,47.59359,-54.27349
2021-01-23 21:14:01+00:00,279.0,8.7,281.0,9.76,12.65,47.59359,-54.27349
2021-01-23 21:24:01+00:00,283.0,9.65,284.0,11.99,12.65,47.59359,-54.27349
2021-01-23 21:34:01+00:00,285.0,11.31,287.0,12.46,12.65,47.59359,-54.27349
2021-01-23 21:44:01+00:00,283.0,9.31,284.0,10.24,12.65,47.59359,-54.27349
2021-01-23 21:54:01+00:00,277.0,9.4,279.0,10.73,12.65,47.59359,-54.27349
2021-01-23 22:04:01+00:00,284.0,9.39,281.0,12.3,12.65,47.59359,-54.27349
2021-01-23 22:14:01+00:00,284.0,10.03,285.0,11.93,12.57,47.59359,-54.27349
2021-01-23 22:24:01+00:00,278.0,13.05,281.0,14.95,12.57,47.59359,-54.27349
2021-01-23 22:34:01+00:00,278.0,12.5,276.0,15.96,12.57,47.59359,-54.27349
2021-01-23 22:44:01+00:00,280.0,12.19,279.0,15.19,12.57,47.59359,-54.27349
2021-01-23 22:54:01+00:00,285.0,11.23,284.0,13.19,12.57,47.59359,-54.27349
2021-01-23 23:04:01+00:00,285.0,10.43,284.0,12.04,12.57,47.59359,-54.27349
2021-01-23 23:14:01+00:00,291.0,13.03,291.0,16.34,12.57,47.59359,-54.27349
2021-01-23 23:24:01+00:00,289.0,9.92,297.0,13.77,12.57,47.59359,-54.27349
2021-01-23 23:34:01+00:00,287.0,9.83,288.0,11.74,12.57,47.59359,-54.27349
2021-01-23 23:44:01+00:00,296.0,7.22,300.0,8.31,12.57,47.59359,-54.27349
2021-01-23 23:54:01+00:00,292.0,7.73,297.0,9.68,12.57,47.59359,-54.27349
